SCP
0 0 0 0 -0 -0 -0 -0 -0 -0 -0 -0 -0 -0 -0 -0 -0 -0 -0 -0 0 0 0 0 0 0 0 0 0 0 0 0
0 0 0 0 0 -0 -0 -0 -0 -0 -0 -0 -0 -0 -0 -0 -0 -0 0 0 0 0 0 0 0 0 0 0 0 0 0 0
0 0 0 0 0 0 -0 -0 -0 -0 0 -0 0 0 0 0 0 0 0 0 0 0 0 0 0 0 0 0 0 0 0 0
0 0 0 0 0 0 0 0 0 0 0 0 0 0 0 0 0 0 0 0 0 0 0 0 0 0 0 0 0 0 0 0
0 0 0 0 0 0 0 0 0 0 0 0 0 0 0 0 0 0 0 0 0 0 0 0 0 0 0 0 0 0 0 0
0 0 0 0 0 0 0 0 0 0 0 0 0 0 0 0 0 0 0 0 0 0 0 0 0 0 0 0 0 0 0 0
0 0 0 0 0 0 0 0 0 0 0 0 0 0 0 0 0 0 0 0 0 0 0 0 0 0 0 0 0 0 0 0
0 0 0 0 0 0 0 0 0 0 0 0 0 0 0 0 0 0 0 0 0 0 0 0 0 0 0 0 0 0 0 0
0 0 0 0 0 0 0 0 0 0 0 0 0 0 0 0 0 0 0 0 0 0 0 0 0 0 0 0 0 0 0 0
0 0 0 0 0 0 0 0 0 0 0 0 0 0 0 0 0 0 0 0 0 0 0 0 0 0 0 0 0 0 0 0
0 0 0 0 0 0 0 0 0 0 0 0 0 0 0 0 0 0 0 0 0 0 0 0 0 0 0 0 0 0 0 0
0 0 0 0 0 0 0 0 0 0 0 0 0 0 0 0 0 0 0 0 0 0 0 0 0 0 0 0 0 0 0 0
0 0 0 0 0 0 0 0 0 0 0 0 0 0 0 0 0 0 0 0 -0 0 -0 0 0 0 -0 0 0 0 0 0
0 0 0 0 0 0 0 0 0 0 0 0 0 0 0 0 0 0 0 -0 0 0 0 -0 -0 -0 -0 -0 0 0 0 0
0 0 0 0 0 0 0 0 0 0 0 0 0 0 0 0 0 0 0 -0 -0 -0 0 0 0 0 0 -0 0 0 0 0
0 0 0 0 0 0 0 0 0 0 0 0 0 0 0 0 0 0 0 0 0 0 0 0 0 0 0 0 0 0 0 0
0 0 0 0 0 0 0 0 0 0 0 0 0 0 0 0 0 0 0 0 0 0 0 0 0 0 0 0 0 0 0 0
0 0 0 0 0 0 0 0 0 0 0 0 0 0 0 0 0 0 0 0 0 0 0 0 0 0 0 0 0 0 0 0
0 0 0 0 0 0 0 0 0 0 0 0 0 0 0 0 0 0 0 0 0 0 0 0 0 0 0 0 0 0 0 0
0 0 0 0 0 0 0 0 0 0 0 0 0 0 0 0 0 0 0 0 0 0 0 0 0 0 0 0 0 0 0 0
Wind_Speed_500mb
34 30 26 23 20 17 14 11 9 7 6 3 1 4 5 5 6 8 11 14 15 17 19 20 22 25 27 30 31 29 28 27
34 31 27 23 19 17 14 12 11 10 9 6 3 4 4 5 6 9 11 16 19 21 22 22 23 25 28 31 32 30 29 29
33 30 27 25 21 19 15 14 13 13 12 10 5 1 3 7 10 13 17 20 22 23 25 26 27 28 29 30 31 31 32 36
37 33 30 27 25 21 20 20 20 17 12 7 2 4 8 11 15 17 19 22 23 24 24 26 28 30 31 31 32 32 31 31
43 39 34 30 27 26 27 23 18 12 7 3 5 9 12 13 16 18 20 22 25 27 29 31 32 33 33 32 31 31 32 32
47 43 38 33 29 32 27 21 16 9 4 4 7 12 14 14 17 21 24 28 31 34 36 37 36 36 36 35 33 33 33 32
52 47 41 36 33 32 27 21 14 7 4 7 9 11 13 17 20 24 27 30 33 35 36 37 37 35 35 35 34 34 33 34
54 49 44 40 37 31 25 18 11 5 5 7 9 12 16 20 24 27 30 33 35 37 39 40 40 39 36 34 34 34 34 32
58 52 48 45 40 34 25 17 10 6 7 6 8 13 19 23 26 29 32 35 37 39 40 40 39 38 38 37 35 33 31 28
56 53 51 46 40 33 25 18 12 9 5 5 10 16 21 25 29 31 33 35 38 40 41 42 42 41 39 36 35 31 28 26
58 54 51 47 41 33 26 20 14 9 4 5 11 16 21 25 28 31 32 34 37 40 44 47 47 45 41 39 35 27 24 24
59 59 54 49 43 38 32 24 17 11 6 2 9 15 20 25 28 31 34 37 40 44 46 48 51 50 45 38 27 20 20 13
62 62 59 55 51 44 36 27 20 14 8 1 7 14 20 25 30 33 35 40 44 47 48 49 50 52 49 40 23 23 6 22
62 60 60 55 48 41 33 29 24 16 9 2 7 13 19 25 29 32 35 38 40 43 45 46 49 53 52 39 22 19 17 28
63 62 59 56 51 46 41 35 27 21 12 4 3 11 18 22 27 30 34 37 41 44 45 45 43 42 46 37 18 14 54 19
63 63 62 59 56 50 44 37 32 22 15 10 5 8 15 20 24 28 32 35 36 39 41 40 41 42 38 37 24 20 19 31
66 64 63 59 55 50 46 40 31 26 21 14 8 8 13 17 21 25 29 32 34 34 36 37 36 35 37 35 34 33 18 34
71 68 66 62 57 53 46 40 36 30 23 17 11 9 12 16 19 24 27 29 30 33 34 31 29 29 29 31 31 29 34 29
75 71 70 64 58 53 50 44 37 29 23 17 13 11 13 16 18 21 23 26 30 32 29 25 27 28 32 35 33 29 29 31
81 75 69 65 59 56 51 45 38 31 25 20 15 14 14 15 17 20 22 25 27 25 20 22 26 31 36 36 32 29 30 30
Wind_Direction_500mb
170 171 175 176 178 177 175 181 183 181 191 199 263 300 300 310 328 332 328 321 321 317 317 316 312 307 304 304 306 304 298 298
167 170 173 176 177 171 173 179 179 172 170 178 205 257 276 299 321 322 319 316 316 318 318 319 318 312 311 309 305 301 304 306
173 180 183 179 178 175 180 176 165 161 152 136 126 128 317 320 327 327 325 319 320 319 319 318 318 317 315 315 316 314 305 294
182 187 191 181 179 177 171 157 147 147 144 142 181 313 313 322 324 321 319 320 321 322 322 320 317 318 320 321 319 317 314 309
186 189 190 186 181 172 163 158 159 163 164 203 293 312 317 318 320 322 324 326 328 330 328 326 327 327 326 324 319 313 312 312
188 190 190 189 184 174 174 172 176 189 211 284 317 318 319 325 332 337 336 336 335 334 334 335 334 334 332 330 325 320 315 310
191 191 193 194 187 182 181 183 188 209 276 314 320 317 326 340 343 342 342 340 338 339 338 336 335 333 333 329 326 323 321 317
192 191 192 193 191 190 189 191 199 227 287 310 325 334 342 347 349 347 345 345 345 344 342 339 339 338 335 332 327 324 321 320
192 190 192 193 193 194 195 200 213 251 283 311 337 345 346 346 347 348 349 349 344 342 341 338 336 336 336 334 331 328 323 318
191 190 191 192 193 193 195 198 211 235 267 335 352 353 351 353 352 352 354 349 345 340 339 339 339 339 341 338 332 328 319 311
191 190 190 191 191 193 195 201 207 216 245 331 350 355 355 354 353 354 349 345 343 346 347 346 344 344 347 343 335 326 316 307
197 195 193 193 192 192 195 197 198 200 211 303 2 353 356 352 350 349 348 347 348 350 351 349 347 345 347 344 337 327 323 318
197 195 193 195 193 193 196 197 198 199 209 352 357 355 355 351 350 352 350 349 351 350 350 348 345 344 343 348 346 344 10 327
201 200 198 198 200 198 200 201 195 197 203 232 345 352 351 347 348 349 348 350 350 350 350 351 352 353 358 357 351 338 320 323
204 202 201 199 197 200 199 199 198 198 195 219 316 344 343 341 343 344 347 349 348 349 349 351 355 358 3 12 0 336 331 322
206 204 201 198 200 207 212 207 198 198 200 210 247 319 328 333 338 343 346 346 346 348 351 353 354 358 358 1 357 339 332 320
204 202 201 202 205 206 203 199 200 202 203 210 231 287 312 326 331 342 344 345 346 347 346 351 352 349 351 353 344 335 340 311
203 200 201 202 201 200 204 206 204 203 206 213 231 273 299 315 329 339 343 344 344 343 344 346 346 347 351 348 341 336 327 328
199 200 201 201 202 200 200 203 204 203 209 222 239 264 285 307 325 333 338 341 340 336 339 339 344 347 349 345 339 330 323 323
198 198 199 200 200 199 198 201 202 200 208 221 236 252 276 304 319 327 333 339 338 341 341 339 344 345 346 343 340 333 331 330
Wind_Speed_850mb
34 30 26 23 20 17 14 11 9 7 6 3 1 4 5 5 6 8 11 14 15 17 19 20 22 25 27 30 31 29 28 27
34 31 27 23 19 17 14 12 11 10 9 6 3 4 4 5 6 9 11 16 19 21 22 22 23 25 28 31 32 30 29 29
33 30 27 25 21 19 15 14 13 13 12 10 5 1 3 7 10 13 17 20 22 23 25 26 27 28 29 30 31 31 32 36
37 33 30 27 25 21 20 20 20 17 12 7 2 4 8 11 15 17 19 22 23 24 24 26 28 30 31 31 32 32 31 31
43 39 34 30 27 26 27 23 18 12 7 3 5 9 12 13 16 18 20 22 25 27 29 31 32 33 33 32 31 31 32 32
47 43 38 33 29 32 27 21 16 9 4 4 7 12 14 14 17 21 24 28 31 34 36 37 36 36 36 35 33 33 33 32
52 47 41 36 33 32 27 21 14 7 4 7 9 11 13 17 20 24 27 30 33 35 36 37 37 35 35 35 34 34 33 34
54 49 44 40 37 31 25 18 11 5 5 7 9 12 16 20 24 27 30 33 35 37 39 40 40 39 36 34 34 34 34 32
58 52 48 45 40 34 25 17 10 6 7 6 8 13 19 23 26 29 32 35 37 39 40 40 39 38 38 37 35 33 31 28
56 53 51 46 40 33 25 18 12 9 5 5 10 16 21 25 29 31 33 35 38 40 41 42 42 41 39 36 35 31 28 26
58 54 51 47 41 33 26 20 14 9 4 5 11 16 21 25 28 31 32 34 37 40 44 47 47 45 41 39 35 27 24 24
59 59 54 49 43 38 32 24 17 11 6 2 9 15 20 25 28 31 34 37 40 44 46 48 51 50 45 38 27 20 20 13
62 62 59 55 51 44 36 27 20 14 8 1 7 14 20 25 30 33 35 40 44 47 48 49 50 52 49 40 23 23 6 22
62 60 60 55 48 41 33 29 24 16 9 2 7 13 19 25 29 32 35 38 40 43 45 46 49 53 52 39 22 19 17 28
63 62 59 56 51 46 41 35 27 21 12 4 3 11 18 22 27 30 34 37 41 44 45 45 43 42 46 37 18 14 54 19
63 63 62 59 56 50 44 37 32 22 15 10 5 8 15 20 24 28 32 35 36 39 41 40 41 42 38 37 24 20 19 31
66 64 63 59 55 50 46 40 31 26 21 14 8 8 13 17 21 25 29 32 34 34 36 37 36 35 37 35 34 33 18 34
71 68 66 62 57 53 46 40 36 30 23 17 11 9 12 16 19 24 27 29 30 33 34 31 29 29 29 31 31 29 34 29
75 71 70 64 58 53 50 44 37 29 23 17 13 11 13 16 18 21 23 26 30 32 29 25 27 28 32 35 33 29 29 31
81 75 69 65 59 56 51 45 38 31 25 20 15 14 14 15 17 20 22 25 27 25 20 22 26 31 36 36 32 29 30 30
Wind_Direction_850mb
170 171 175 176 178 177 175 181 183 181 191 199 263 300 300 310 328 332 328 321 321 317 317 316 312 307 304 304 306 304 298 298
167 170 173 176 177 171 173 179 179 172 170 178 205 257 276 299 321 322 319 316 316 318 318 319 318 312 311 309 305 301 304 306
173 180 183 179 178 175 180 176 165 161 152 136 126 128 317 320 327 327 325 319 320 319 319 318 318 317 315 315 316 314 305 294
182 187 191 181 179 177 171 157 147 147 144 142 181 313 313 322 324 321 319 320 321 322 322 320 317 318 320 321 319 317 314 309
186 189 190 186 181 172 163 158 159 163 164 203 293 312 317 318 320 322 324 326 328 330 328 326 327 327 326 324 319 313 312 312
188 190 190 189 184 174 174 172 176 189 211 284 317 318 319 325 332 337 336 336 335 334 334 335 334 334 332 330 325 320 315 310
191 191 193 194 187 182 181 183 188 209 276 314 320 317 326 340 343 342 342 340 338 339 338 336 335 333 333 329 326 323 321 317
192 191 192 193 191 190 189 191 199 227 287 310 325 334 342 347 349 347 345 345 345 344 342 339 339 338 335 332 327 324 321 320
192 190 192 193 193 194 195 200 213 251 283 311 337 345 346 346 347 348 349 349 344 342 341 338 336 336 336 334 331 328 323 318
191 190 191 192 193 193 195 198 211 235 267 335 352 353 351 353 352 352 354 349 345 340 339 339 339 339 341 338 332 328 319 311
191 190 190 191 191 193 195 201 207 216 245 331 350 355 355 354 353 354 349 345 343 346 347 346 344 344 347 343 335 326 316 307
197 195 193 193 192 192 195 197 198 200 211 303 2 353 356 352 350 349 348 347 348 350 351 349 347 345 347 344 337 327 323 318
197 195 193 195 193 193 196 197 198 199 209 352 357 355 355 351 350 352 350 349 351 350 350 348 345 344 343 348 346 344 10 327
201 200 198 198 200 198 200 201 195 197 203 232 345 352 351 347 348 349 348 350 350 350 350 351 352 353 358 357 351 338 320 323
204 202 201 199 197 200 199 199 198 198 195 219 316 344 343 341 343 344 347 349 348 349 349 351 355 358 3 12 0 336 331 322
206 204 201 198 200 207 212 207 198 198 200 210 247 319 328 333 338 343 346 346 346 348 351 353 354 358 358 1 357 339 332 320
204 202 201 202 205 206 203 199 200 202 203 210 231 287 312 326 331 342 344 345 346 347 346 351 352 349 351 353 344 335 340 311
203 200 201 202 201 200 204 206 204 203 206 213 231 273 299 315 329 339 343 344 344 343 344 346 346 347 351 348 341 336 327 328
199 200 201 201 202 200 200 203 204 203 209 222 239 264 285 307 325 333 338 341 340 336 339 339 344 347 349 345 339 330 323 323
198 198 199 200 200 199 198 201 202 200 208 221 236 252 276 304 319 327 333 339 338 341 341 339 344 345 346 343 340 333 331 330